User: anonymous   Login
Location: Newark
(47.4333°N, 19.2500°E)
Time: 07:34:08
(UTC+00:00)
Language:

PRISM - Orbit

View from above orbital plane
View from above orbital plane
View from above satellite
View from above satellite

Ground track
Ground track

The orbit data is extracted from the following two-line orbital elements,

1 33493U 09002B   21130.84673201  .00001078  00000-0  97520-4 0  9994
2 33493  98.1869  91.5842 0016601  55.1537 305.1242 14.97615552668691
Epoch (UTC): 10 May 2021 20:19:17
Eccentricity: 0.0016601
inclination: 98.1869°
perigee height: 563 km
apogee height: 586 km
right ascension of ascending node: 91.5842°
argument of perigee: 55.1537°
revolutions per day: 14.97615552
mean anomaly at epoch: 305.1242°
orbit number at epoch: 66869

The dashed part of the orbit path shows where the satellite is in the earth's shadow,  

DLR